Simultaneous Nadir Overpasses (SNOs) Predictions

Prediction of SNOs between GOES-15 and METOP-B Satellite Orbit:

Table of predicted SNOs for the next 14.0 days since TLE Epoch: 2/24/2024
Index Date Time (GOES-15) GOES-15 Lat,Lon METOP-B Lat,Lon Distance(km) Time Diff (sec)
1 02/26/2024 05:20:53 0.02, 61.35 -0.02, 61.42 9.58 80
2 02/28/2024 17:16:36 -0.02, 61.31 0.08, 61.80 55.97 80
3 03/01/2024 05:35:29 0.01, 61.33 0.94, 57.22 468.15 80
4 03/02/2024 05:17:31 0.01, 61.33 -0.18, 62.21 100.45 80
5 03/03/2024 17:36:33 -0.01, 61.30 -0.81, 57.59 421.98 80
6 03/04/2024 17:13:13 -0.01, 61.30 0.25, 62.59 145.50 80
7 03/06/2024 05:32:07 0.01, 61.35 0.75, 58.01 380.76 80
8 03/07/2024 05:14:08 0.01, 61.35 -0.37, 62.99 187.11 80
9 03/08/2024 17:33:10 -0.01, 61.33 -0.66, 58.38 335.45 80
